Location: Landeleau
(48.2273°N, 3.7285°W)
Time: 00:08:14
(UTC+00:00)

Abrixas rocket - Pass Details

Date: 30 March 2020
Orbit: 344 x 351 km, 48.4° (Epoch: 04 June)

Event Time Altitude Azimuth Distance (km) Brightness Sun altitude
Rises 20:15:47 0° 227° (SW) 2,161 6.2 -15.6°
Reaches altitude 10° 20:17:56 10° 216° (SW) 1,324 4.9 -15.9°
Enters shadow 20:19:50 26° 182° (S) 749 3.3 -16.2°
